Hourly Weather Roundup
Issued by NWS Central Illinois

Home | Current Version | Previous Version | Text Only | Print | Product List | Glossary On
Versions: 1 2 3 4 5 6 7 8 9 10 11 12 13 14 15 16 17 18 19 20 21 22 23 24 25 26 27 28 29 30 31 32 33 34 35 36 37 38 39 40 41 42 43 44 45 46 47 48 49 50
000
NZUS43 KILX 040310
HWRILX

AREA WEATHER ROUNDUP
NATIONAL WEATHER SERVICE, LINCOLN IL
1000 PM CDT THU SEP 03 2015


CITY           SKY/WX    TMP DP  RH WIND       PRES   REMARKS
BLOOMINGTON    CLEAR     78  69  73 CALM      29.97R HX  80
CHAMPAIGN      CLEAR     74  69  85 SW6       29.96R
DANVILLE       CLEAR     70  69  95 SW3       29.93R
DECATUR        CLEAR     78  68  71 SW6       29.96R HX  80
EFFINGHAM      CLEAR     73  69  86 CALM      29.98R
FLORA          CLEAR     73  68  84 CALM      29.97S
GALESBURG      PTCLDY    76  70  81 SE3       29.94R
JACKSONVILLE   CLEAR     78  70  74 S3        29.95R HX  81
LACON          CLEAR     74  70  89 CALM      29.93S
LAWRENCEVILLE  PTCLDY    76  69  79 CALM      29.96R
LITCHFIELD     CLEAR     73  68  87 CALM      29.97R
$$


CITY           SKY/WX    TMP DP  RH WIND       PRES   REMARKS
LINCOLN        CLEAR     75  66  75 CALM      29.94R
MACOMB         CLEAR     74  69  85 CALM      29.96R
MATTOON        CLEAR     79  68  69 SW6       29.96R HX  81
MT CARMEL AP   CLEAR     72  68  88 CALM      29.96S
OLNEY-NOBLE AP CLEAR     72  68  88 CALM      29.97R
PARIS          CLEAR     74  69  85 SW6       29.97R
PEORIA         CLOUDY    81  70  69 CALM      29.94R HX  84
PONTIAC        CLEAR     74  71  90 CALM      29.94S
RANTOUL        CLEAR     79  71  76 SW6       29.95S HX  82
ROBINSON       CLEAR     71  69  93 CALM      29.96S
SPRINGFIELD    MOCLDY    76  67  73 CALM      29.95R
TAYLORVILLE    PTCLDY    73  68  83 S3        29.97R
$$

...REGIONAL REPORTS...


CITY           SKY/WX    TMP DP  RH WIND       PRES   REMARKS
CHICAGO O`HARE MOCLDY    73  66  78 NE7G18    29.94R
KANKAKEE       CLEAR     74  69  86 CALM      29.92F
MOLINE         CLEAR     77  71  82 CALM      29.92R
MOUNT STERLING CLEAR     75  70  83 S3        29.94R
MOUNT VERNON   CLEAR     72  64  78 CALM      29.98R
PITTSFIELD     CLEAR     77  70  80 CALM      29.96R
QUINCY         CLEAR     78  68  71 S5        29.94R HX  80
ROCKFORD       PTCLDY    78  71  79 NE9       29.95R HX  80
$$


CITY           SKY/WX    TMP DP  RH WIND       PRES   REMARKS
BURLINGTON     CLEAR     78  71  79 CALM      29.93R HX  80
CEDAR RAPIDS   CLEAR     75  73  93 SE3       29.91R
DES MOINES     PTCLDY    79  71  76 S6        29.89R HX  82
KIRKSVILLE     CLEAR     75  67  76 S5        29.94R
OTTUMWA        CLEAR     74  70  87 S5        29.91R
ST LOUIS       PTCLDY    84  67  56 CALM      29.96R HX  86
$$


CITY           SKY/WX    TMP DP  RH WIND       PRES   REMARKS
TERRE HAUTE    CLEAR     73  68  84 CALM      29.96R
EVANSVILLE     CLEAR     74  69  85 SW3       29.97R
INDIANAPOLIS   CLEAR     76  67  73 SW7       29.96R
LAFAYETTE      CLEAR     74  69  85 CALM      29.93S
MADISON        MOCLDY    71  65  81 E5        29.96R
MILWAUKEE      MOCLDY    65  63  93 N7        29.94F
$$





USA.gov is the U.S. government's official web portal to all federal, state and local government web resources and services.